Starlink 32099

operational
NORAD ID: 59697 Int'l Des: 2024-086 Owner: SPXS Country: US Constellation: starlink
LEOCIRCULAR

Starlink 32099について

説明を読み込み中...

リアルタイム位置

3D地球を読み込み中...

次回通過

高度履歴

Altitude vs Time

uPlot chart will show altitude changes over time

軌道要素

1 59697U 24086R 26035.27041865 -.00000523 00000-0 -94836-5 0 9992
2 59697 43.0005 248.4138 0001158 274.1718 85.9001 15.27572355 99008
Epoch: Feb 4, 2026 • Age: 6 hours

現在のステータス

高度 488.3 km
速度 7.62 km/s
衛星直下点 -23.85°S, 104.99°W
打ち上げ日 May 8, 2024
運用期間 1.7 years
タイプ internet

技術仕様

分類 Payload
質量 730.00 kg
乾燥質量 700.00 kg
総質量 730.00 kg
長さ 0.30 m
直径 4.10 m
スパン 29.00 m
形状 Box + pan
製造者 SPXS
バスタイプ Starlink V2M
フェーズステータス In Orbit
所有者/国 SPXS/US

大規模コンステレーション

Loading constellations...